Weather History for Beatrice, NE

Change the Weather History Date:

Tuesday, January 8, 2013

  Actual Average Record
Temperature  
Mean Temperature 34 °F -  
Max Temperature 43 °F 27 °F 68 °F (2003)
Min Temperature 26 °F 8 °F -10 °F (1970)
Degree Days  
Heating Degree Days 30    
Moisture  
Dew Point 27 °F    
Average Humidity 74    
Maximum Humidity 88    
Minimum Humidity 55    
Precipitation  
Precipitation 0.03 in - - ()
Sea Level Pressure  
Sea Level Pressure 29.96 in    
Wind  
Wind Speed 8 mph (SW)    
Max Wind Speed 18 mph    
Max Gust Speed 23 mph    
Visibility 10 miles    
Events      
Averages and records for this station are not official NWS values.
T = Trace of Precipitation, MM = Missing Value Source: NWS Daily Summary

Daily Weather History Graph

Daily Weather History Graph

Search for Another Location

Airport:

Trip Planner

Search our weather history database for the weather conditions in past years. The results will help you decide how hot, cold, wet, or windy it might be!

Date:

Astronomy

Jan. 08, 2013 Rise Set
Actual Time 7:49 AM CST 5:18 PM CST
Civil Twilight 7:19 AM CST 5:48 PM CST
Nautical Twilight 6:45 AM CST 6:22 PM CST
Astronomical Twilight 6:12 AM CST 6:55 PM CST
Moon 4:23 AM CST (1/8) 2:21 PM CST (1/8)
Length of Visible Light 10h 29m
Length of Day
9h 28m
Waning Crescent, 13% of the Moon is Illuminated
Jan 8
Waning Crescent
Jan 11
New
Jan 18
First Quarter
Jan 26
Full
Feb 3
Last Quarter

Hourly Weather History & Observations

Time (CST) Temp. Windchill Dew Point Humidity Pressure Visibility Wind Dir Wind Speed Gust Speed Precip Events Conditions
12:15 AM 27.1 °F - 24.1 °F 88% 29.93 in 10.0 mi Calm Calm - N/A   Clear
12:35 AM 26.6 °F - 22.6 °F 85% 29.93 in 10.0 mi Calm Calm - N/A   Clear
12:55 AM 27.3 °F 20.9 °F 23.7 °F 86% 29.92 in 10.0 mi SSW 5.8 mph - N/A   Clear
1:15 AM 26.6 °F 22.6 °F 22.5 °F 84% 29.93 in 10.0 mi SSW 3.5 mph - N/A   Clear
1:35 AM 27.9 °F 24.0 °F 23.7 °F 84% 29.93 in 10.0 mi SSW 3.5 mph - N/A   Clear
1:55 AM 26.4 °F 19.8 °F 22.5 °F 85% 29.92 in 10.0 mi SSW 5.8 mph - N/A   Clear
2:15 AM 28.2 °F 21.0 °F 23.9 °F 84% 29.93 in 10.0 mi SSW 6.9 mph - N/A   Clear
2:35 AM 29.5 °F 21.8 °F 25.0 °F 83% 29.93 in 10.0 mi South 8.1 mph - N/A   Clear
2:55 AM 31.1 °F 23.7 °F 26.1 °F 82% 29.93 in 10.0 mi South 8.1 mph - N/A   Clear
3:15 AM 31.6 °F 23.7 °F 26.2 °F 80% 29.92 in 10.0 mi South 9.2 mph - N/A   Clear
3:35 AM 32.2 °F 24.4 °F 26.6 °F 80% 29.92 in 10.0 mi SSW 9.2 mph - N/A   Clear
3:55 AM 32.0 °F 24.2 °F 26.4 °F 80% 29.91 in 10.0 mi South 9.2 mph - N/A   Clear
4:15 AM 32.5 °F 23.7 °F 27.0 °F 80% 29.90 in 10.0 mi South 11.5 mph - N/A   Clear
4:35 AM 32.9 °F 23.2 °F 26.8 °F 78% 29.88 in 10.0 mi South 13.8 mph 17.3 mph N/A   Clear
4:55 AM 32.9 °F 23.2 °F 26.6 °F 78% 29.88 in 10.0 mi South 13.8 mph - N/A   Clear
5:15 AM 32.9 °F 23.7 °F 26.6 °F 78% 29.88 in 10.0 mi South 12.7 mph - N/A   Clear
5:35 AM 33.3 °F 23.2 °F 26.6 °F 77% 29.88 in 10.0 mi SSW 15.0 mph 19.6 mph N/A   Clear
5:55 AM 33.4 °F 25.4 °F 26.6 °F 76% 29.88 in 10.0 mi SSW 10.4 mph - N/A   Clear
6:15 AM 33.3 °F 24.6 °F 26.4 °F 76% 29.88 in 10.0 mi SSW 11.5 mph - N/A   Clear
6:35 AM 33.1 °F 23.9 °F 26.2 °F 76% 29.87 in 10.0 mi South 12.7 mph - N/A   Clear
6:55 AM 33.1 °F 23.9 °F 26.2 °F 76% 29.88 in 10.0 mi South 12.7 mph - N/A   Clear
7:15 AM 33.8 °F 25.8 °F 26.6 °F 75% 29.89 in 10.0 mi SSW 10.4 mph - N/A   Clear
7:55 AM 32.4 °F 25.3 °F 26.1 °F 78% 29.90 in 10.0 mi SSW 8.1 mph - N/A   Clear
8:15 AM 32.0 °F 24.2 °F 25.7 °F 78% 29.90 in 10.0 mi South 9.2 mph - N/A   Clear
8:35 AM 32.0 °F 24.2 °F 25.7 °F 78% 29.91 in 10.0 mi South 9.2 mph - N/A   Clear
8:55 AM 32.0 °F 24.2 °F 25.7 °F 78% 29.91 in 10.0 mi South 9.2 mph - N/A   Clear
9:15 AM 33.1 °F 24.9 °F 26.4 °F 77% 29.91 in 10.0 mi South 10.4 mph - N/A   Clear
9:35 AM 34.3 °F 25.5 °F 27.0 °F 74% 29.91 in 10.0 mi South 12.7 mph - N/A   Clear
9:55 AM 35.6 °F 26.6 °F 27.3 °F 72% 29.91 in 10.0 mi South 13.8 mph - N/A   Clear
10:15 AM 37.2 °F 28.3 °F 28.2 °F 70% 29.91 in 10.0 mi South 15.0 mph - N/A   Clear
10:35 AM 38.5 °F 30.3 °F 28.4 °F 67% 29.90 in 10.0 mi South 13.8 mph 21.9 mph N/A   Clear
10:55 AM 39.9 °F 32.5 °F 28.8 °F 64% 29.91 in 10.0 mi SSW 12.7 mph - N/A   Clear
11:15 AM 40.8 °F 32.6 °F 28.0 °F 60% 29.90 in 10.0 mi SSW 16.1 mph 23.0 mph N/A   Clear
11:35 AM 41.5 °F 32.9 °F 28.0 °F 59% 29.89 in 10.0 mi SSW 18.4 mph 23.0 mph N/A   Clear
11:55 AM 41.9 °F 33.7 °F 28.6 °F 59% 29.88 in 10.0 mi SW 17.3 mph - N/A   Clear
12:15 PM 41.9 °F 34.0 °F 28.4 °F 59% 29.87 in 10.0 mi SSW 16.1 mph - N/A   Clear
12:35 PM 42.4 °F 35.0 °F 28.0 °F 57% 29.87 in 10.0 mi SW 15.0 mph 21.9 mph N/A   Clear
12:55 PM 43.0 °F 35.1 °F 28.2 °F 56% 29.86 in 10.0 mi SW 17.3 mph - N/A   Clear
1:15 PM 43.0 °F 34.8 °F 27.9 °F 55% 29.87 in 10.0 mi SW 18.4 mph 23.0 mph N/A   Clear
1:35 PM 42.8 °F 35.4 °F 28.4 °F 57% 29.88 in 10.0 mi SW 15.0 mph - N/A   Clear
1:55 PM 43.0 °F 35.7 °F 28.4 °F 56% 29.88 in 10.0 mi SW 15.0 mph 19.6 mph N/A   Clear
2:15 PM 43.2 °F 36.2 °F 28.8 °F 57% 29.89 in 10.0 mi WSW 13.8 mph 18.4 mph N/A   Clear
2:35 PM 43.2 °F 36.2 °F 28.8 °F 57% 29.90 in 10.0 mi SW 13.8 mph - N/A   Clear
2:55 PM 43.2 °F 37.0 °F 29.5 °F 59% 29.91 in - SW 11.5 mph - 0.03 in   Clear
3:15 PM - - - N/A% - - North - - N/A   Unknown
3:35 PM 43.2 °F 37.0 °F 30.0 °F 60% 29.93 in 10.0 mi WSW 11.5 mph - N/A   Clear
3:55 PM 42.8 °F 36.2 °F 29.3 °F 59% 29.93 in 10.0 mi WSW 12.7 mph - N/A   Clear
4:15 PM 41.9 °F 35.9 °F 28.2 °F 58% 29.94 in 10.0 mi WSW 10.4 mph - N/A   Clear
4:35 PM 41.0 °F 35.8 °F 28.9 °F 62% 29.96 in 10.0 mi WSW 8.1 mph - N/A   Clear
4:55 PM 39.2 °F 33.0 °F 28.9 °F 67% 29.96 in 10.0 mi West 9.2 mph - N/A   Clear
5:15 PM 37.4 °F 30.8 °F 27.9 °F 68% 29.97 in 10.0 mi WSW 9.2 mph - N/A   Clear
5:35 PM 37.0 °F 30.4 °F 28.4 °F 71% 29.99 in 10.0 mi WSW 9.2 mph - N/A   Clear
5:55 PM 36.1 °F 31.4 °F 28.8 °F 75% 30.00 in 10.0 mi WSW 5.8 mph - N/A   Clear
6:15 PM 35.4 °F 29.7 °F 28.9 °F 77% 30.01 in 10.0 mi SW 6.9 mph - N/A   Clear
6:35 PM 35.1 °F 30.1 °F 28.9 °F 78% 30.02 in 10.0 mi SW 5.8 mph - N/A   Clear
6:55 PM 34.9 °F 29.9 °F 29.1 °F 79% 30.03 in 10.0 mi SW 5.8 mph - N/A   Clear
7:15 PM 35.2 °F 30.3 °F 28.8 °F 77% 30.04 in 10.0 mi SW 5.8 mph - N/A   Clear
7:35 PM 34.2 °F 31.2 °F 28.4 °F 79% 30.06 in 10.0 mi SW 3.5 mph - N/A   Clear
7:55 PM 34.0 °F 28.0 °F 28.2 °F 79% 30.06 in 10.0 mi WSW 6.9 mph - N/A   Clear
8:15 PM 33.1 °F 30.0 °F 27.9 °F 81% 30.07 in 10.0 mi West 3.5 mph - N/A   Clear
8:35 PM 32.0 °F 27.5 °F 27.3 °F 83% 30.08 in 10.0 mi West 4.6 mph - N/A   Clear
8:55 PM 32.9 °F 28.5 °F 27.3 °F 80% 30.09 in 10.0 mi West 4.6 mph - N/A   Clear
9:15 PM 33.1 °F 30.0 °F 27.5 °F 80% 30.11 in 10.0 mi West 3.5 mph - N/A   Clear
9:35 PM 33.3 °F 28.9 °F 27.1 °F 78% 30.12 in 10.0 mi West 4.6 mph - N/A   Clear
9:55 PM 32.0 °F 28.7 °F 26.6 °F 80% 30.13 in 10.0 mi SW 3.5 mph - N/A   Clear
10:15 PM 32.2 °F - 27.1 °F 82% 30.14 in 10.0 mi Calm Calm - N/A   Clear
10:35 PM 30.4 °F - 25.2 °F 81% 30.15 in 10.0 mi Calm Calm - N/A   Clear
10:55 PM 32.0 °F - 27.3 °F 83% 30.15 in 10.0 mi Calm Calm - N/A   Clear
11:15 PM 30.2 °F 25.4 °F 24.8 °F 80% 30.15 in 10.0 mi SW 4.6 mph - N/A   Clear
11:35 PM 30.2 °F - 26.6 °F 86% 30.15 in 10.0 mi Calm Calm - N/A   Clear
11:55 PM 29.7 °F - 25.3 °F 84% 30.16 in 10.0 mi Calm Calm - N/A   Clear